Weather History for Tappahannock, VA

Change the Weather History Date:

Friday, October 11, 2013

  Actual Average (KRIC) Record (KRIC)
Temperature  
Mean Temperature 62 °F 61 °F  
Max Temperature 64 °F 72 °F 92 °F (1919)
Min Temperature 59 °F 50 °F 32 °F (1964)
Degree Days  
Heating Degree Days 4 5  
Month to date heating degree days 45  
Since 1 July heating degree days 74  
Cooling Degree Days 0 2  
Month to date cooling degree days 24  
Year to date cooling degree days 1528  
Growing Degree Days 12 (Base 50)    
Moisture  
Dew Point 62 °F    
Average Humidity 99    
Maximum Humidity 100    
Minimum Humidity 96    
Precipitation  
Precipitation 0.00 in 0.10 in 1.51 in (1902)
Month to date precipitation 1.08  
Year to date precipitation 35.20  
Snow  
Snow 0.00 in 0.00 in 0.00 in (2002)
Month to date snowfall 0.0  
Since 1 July snowfall 0.0  
Snow Depth -    
Sea Level Pressure  
Sea Level Pressure 29.90 in    
Wind  
Wind Speed 6 mph (NW)    
Max Wind Speed 10 mph    
Max Gust Speed 16 mph    
Visibility 6 miles    
Events Rain    
T = Trace of Precipitation, MM = Missing Value Source: NWS Daily Summary

Daily Weather History Graph

Daily Weather History Graph

Search for Another Location

Airport:

Trip Planner

Search our weather history database for the weather conditions in past years. The results will help you decide how hot, cold, wet, or windy it might be!

Date:

Astronomy

Oct. 11, 2013 Rise Set
Actual Time 7:12 AM EDT 6:35 PM EDT
Civil Twilight 6:46 AM EDT 7:01 PM EDT
Nautical Twilight 6:15 AM EDT 7:32 PM EDT
Astronomical Twilight 5:45 AM EDT 8:02 PM EDT
Moon 1:49 PM EDT (10/11) No Moon Set
Length of Visible Light 12h 15m
Length of Day
11h 22m
Waxing Crescent, 47% of the Moon is Illuminated
Oct 11
Waxing Crescent
Oct 11
First Quarter
Oct 18
Full
Oct 26
Last Quarter
Nov 3
New

Hourly Weather History & Observations

Time (EDT) Temp. Dew Point Humidity Pressure Visibility Wind Dir Wind Speed Gust Speed Precip Events Conditions
12:15 AM 59.2 °F 59.2 °F 100% 29.91 in 7.0 mi NNW 6.9 mph 16.1 mph N/A   Overcast
12:35 AM 59.2 °F 59.2 °F 100% 29.91 in 4.0 mi NNW 6.9 mph - N/A   Overcast
12:55 AM 59.4 °F 59.4 °F 100% 29.90 in 7.0 mi NNW 5.8 mph - N/A   Overcast
1:15 AM 59.4 °F 59.4 °F 100% 29.90 in 7.0 mi NW 6.9 mph - N/A   Overcast
1:35 AM 59.4 °F 59.4 °F 100% 29.90 in 10.0 mi NNW 5.8 mph - N/A   Light Drizzle
1:55 AM 59.2 °F 59.2 °F 100% 29.90 in 10.0 mi NW 4.6 mph - N/A   Overcast
2:15 AM 59.2 °F 59.2 °F 100% 29.89 in 3.0 mi NW 6.9 mph - N/A Rain Heavy Rain
2:55 AM 59.2 °F 59.2 °F 100% 29.88 in 10.0 mi NNW 5.8 mph - N/A   Overcast
3:15 AM 59.2 °F 59.2 °F 100% 29.88 in 10.0 mi NNW 6.9 mph - N/A   Overcast
3:35 AM 59.2 °F 59.2 °F 100% 29.87 in 10.0 mi NW 3.5 mph - N/A   Overcast
3:55 AM 59.4 °F 59.4 °F 100% 29.87 in 10.0 mi NW 4.6 mph - N/A   Overcast
4:15 AM 59.5 °F 59.5 °F 100% 29.88 in 7.0 mi NW 3.5 mph - N/A   Drizzle
4:35 AM 59.9 °F 59.9 °F 100% 29.88 in 10.0 mi NW 3.5 mph - N/A   Light Drizzle
4:55 AM 59.9 °F 59.9 °F 100% 29.88 in 10.0 mi NNW 3.5 mph - N/A   Drizzle
5:15 AM 60.3 °F 60.3 °F 100% 29.88 in 10.0 mi NW 4.6 mph - N/A   Light Drizzle
5:35 AM 60.4 °F 60.4 °F 100% 29.88 in 10.0 mi NNW 4.6 mph - N/A   Light Drizzle
5:55 AM 60.8 °F 60.8 °F 100% 29.88 in 10.0 mi NNW 3.5 mph - N/A   Overcast
6:15 AM 60.8 °F 60.8 °F 100% 29.88 in 10.0 mi NW 5.8 mph - N/A   Overcast
6:35 AM 60.8 °F 60.8 °F 100% 29.88 in 10.0 mi NNW 8.1 mph - N/A   Overcast
6:55 AM 60.8 °F 60.8 °F 100% 29.88 in 10.0 mi NNW 5.8 mph - N/A   Overcast
7:15 AM 60.8 °F 60.8 °F 100% 29.88 in 10.0 mi NW 8.1 mph - N/A   Overcast
7:35 AM 60.4 °F 60.3 °F 99% 29.88 in 10.0 mi NW 10.4 mph - N/A   Overcast
7:55 AM 60.6 °F 60.4 °F 99% 29.89 in 10.0 mi NNW 5.8 mph - N/A   Overcast
8:15 AM 60.8 °F 60.3 °F 98% 29.90 in 10.0 mi NNW 6.9 mph - N/A   Overcast
8:35 AM 61.0 °F 60.6 °F 99% 29.90 in 10.0 mi NNW 6.9 mph - N/A   Overcast
8:55 AM 61.3 °F 60.8 °F 98% 29.91 in 10.0 mi NNW 6.9 mph - N/A   Overcast
9:15 AM 61.7 °F 61.0 °F 97% 29.91 in 10.0 mi NW 5.8 mph - N/A   Overcast
9:35 AM 61.7 °F 60.8 °F 97% 29.91 in 10.0 mi NW 5.8 mph - N/A   Overcast
9:55 AM 62.1 °F 60.8 °F 96% 29.91 in 10.0 mi NW 5.8 mph - N/A   Overcast
10:15 AM 62.1 °F 60.8 °F 96% 29.91 in 10.0 mi NW 8.1 mph - N/A   Overcast
10:35 AM 61.9 °F 61.0 °F 97% 29.92 in 1.8 mi NW 4.6 mph - N/A   Overcast
10:55 AM 61.9 °F 61.3 °F 98% 29.92 in 3.0 mi NW 4.6 mph - N/A   Overcast
11:15 AM 61.9 °F 61.3 °F 98% 29.92 in 4.0 mi NW 3.5 mph - N/A   Overcast
11:35 AM 61.9 °F 61.2 °F 97% 29.91 in 2.5 mi NW 4.6 mph - N/A   Overcast
11:55 AM 61.9 °F 61.3 °F 98% 29.91 in 2.0 mi NW 5.8 mph - N/A   Overcast
12:15 PM 62.1 °F 61.7 °F 99% 29.91 in 1.5 mi NW 3.5 mph - N/A   Overcast
12:35 PM 62.1 °F 61.7 °F 99% 29.91 in 1.5 mi NW 4.6 mph - N/A   Overcast
12:55 PM 62.6 °F 62.2 °F 99% 29.90 in 1.8 mi NW 4.6 mph - N/A   Overcast
1:15 PM 63.5 °F 63.3 °F 99% 29.90 in 3.0 mi WNW 3.5 mph - N/A   Overcast
1:35 PM 63.5 °F 63.0 °F 98% 29.89 in 1.8 mi NW 6.9 mph - N/A   Overcast
1:55 PM 63.7 °F 63.3 °F 99% 29.89 in 2.5 mi NW 4.6 mph - N/A Rain Light Rain
2:15 PM 63.5 °F 63.0 °F 98% 29.88 in 2.0 mi NW 5.8 mph - N/A   Overcast
2:35 PM 63.5 °F 63.0 °F 98% 29.88 in 2.5 mi NNW 4.6 mph - N/A   Overcast
2:55 PM 63.5 °F 63.1 °F 99% 29.88 in 3.0 mi NW 5.8 mph - N/A   Overcast
3:15 PM 63.9 °F 63.3 °F 98% 29.88 in 2.0 mi NW 5.8 mph - N/A   Overcast
3:35 PM 63.7 °F 63.1 °F 98% 29.88 in 2.0 mi NNW 4.6 mph - N/A   Overcast
3:55 PM 63.7 °F 63.1 °F 98% 29.89 in 7.0 mi NNW 5.8 mph - N/A   Overcast
4:15 PM 63.7 °F 63.0 °F 97% 29.89 in 5.0 mi NW 3.5 mph - N/A   Overcast
4:35 PM 63.5 °F 63.0 °F 98% 29.89 in 1.8 mi NW 6.9 mph - N/A   Overcast
4:55 PM 63.5 °F 63.1 °F 99% 29.89 in 2.5 mi NW 5.8 mph - N/A   Overcast
5:15 PM 63.5 °F 63.1 °F 99% 29.90 in 3.0 mi NNW 4.6 mph - N/A   Overcast
5:35 PM 63.5 °F 63.1 °F 99% 29.90 in 3.0 mi NW 5.8 mph - N/A   Overcast
5:55 PM 63.5 °F 63.0 °F 98% 29.90 in 1.5 mi NW 4.6 mph - N/A   Drizzle
6:15 PM 63.5 °F 63.1 °F 99% 29.91 in 2.5 mi NW 4.6 mph - N/A   Light Drizzle
6:35 PM 63.3 °F 63.3 °F 100% 29.91 in 1.5 mi NW 5.8 mph - N/A Rain Rain
6:55 PM 63.1 °F 63.1 °F 100% 29.91 in 3.0 mi NW 5.8 mph - N/A   Light Drizzle
7:15 PM 63.1 °F 63.1 °F 100% 29.91 in 2.5 mi NW 4.6 mph - N/A   Light Drizzle
7:35 PM 63.1 °F 63.1 °F 100% 29.92 in 3.0 mi NNW 6.9 mph - N/A   Overcast
7:55 PM 63.1 °F 63.1 °F 100% 29.92 in 2.0 mi NW 4.6 mph - N/A   Drizzle
8:15 PM 63.1 °F 63.1 °F 100% 29.93 in 3.0 mi NNW 5.8 mph - N/A   Drizzle
8:35 PM 63.3 °F 63.3 °F 100% 29.92 in 3.0 mi NNW 5.8 mph - N/A   Heavy Drizzle
8:55 PM 63.5 °F 63.5 °F 100% 29.93 in 4.0 mi NNW 3.5 mph - N/A Rain Rain
9:15 PM 63.5 °F 63.5 °F 100% 29.93 in 4.0 mi NNW 4.6 mph - N/A   Drizzle
9:35 PM 63.5 °F 63.5 °F 100% 29.93 in 3.0 mi NNW 5.8 mph - N/A   Light Drizzle
9:55 PM 63.5 °F 63.5 °F 100% 29.93 in 3.0 mi NNW 3.5 mph - N/A   Overcast
10:15 PM 63.5 °F 63.5 °F 100% 29.94 in 3.0 mi Calm Calm - N/A   Overcast
10:35 PM 63.7 °F 63.7 °F 100% 29.94 in 2.5 mi North 3.5 mph - N/A   Overcast
10:55 PM 63.7 °F 63.7 °F 100% 29.94 in 3.0 mi Calm Calm - N/A Rain Rain
11:15 PM 63.9 °F 63.9 °F 100% 29.93 in 4.0 mi Calm Calm - N/A   Light Drizzle
11:35 PM 64.0 °F 64.0 °F 100% 29.93 in 2.5 mi Calm Calm - N/A   Overcast
11:55 PM 64.0 °F 64.0 °F 100% 29.93 in 1.8 mi NNW 3.5 mph - N/A   Overcast